Location: Bonaustraße
(48.4603°N, 11.9280°E)
Time: 01:57:43
(UTC+02:00)

X-37B - Visible Passes

Search period start: 10 May 2021 00:00
Search period end: 20 May 2021 00:00
Orbit: 386 x 389 km, 45.0° (Epoch: 08 May)

Date Brightness Start Highest point End Pass type
(mag) Time Alt. Az. Time Alt. Az. Time Alt. Az.
10 May 1.3 21:22:22 10° W 21:25:22 39° S 21:28:21 10° ESE visible
10 May 2.9 22:59:24 10° WSW 23:00:37 15° SW 23:00:37 15° SW visible
11 May 2.1 22:00:43 10° WSW 22:03:21 23° SSW 22:04:43 18° SSE visible
12 May 3.1 22:40:17 10° SW 22:41:05 11° SSW 22:41:05 11° SSW visible
13 May 2.7 21:40:53 10° WSW 21:43:00 16° SSW 21:45:06 10° SSE visible
15 May 3.2 21:21:49 10° SW 21:22:35 11° SSW 21:23:20 10° SSW visible
